When you browse on this site, cookies collect data to enhance your experience and personalize the content and advertising you see.
Visit our Privacy Policy to learn more. By continuing to use the site, you agree to this use of cookies and data.
  • en Suisse
  • Liste des pays
  • À 7 jours
  • Température de l'eau
  • Carte satellitaire
  • Carte météo
  • Widgets météo
  • user-avatar
    Se connecter

    Météo par heure à Kipungo

    Ce jour, 24 Mai, Vendredi

    Heure Température Précipitation Vent Pression Humidité
    00:00 +19°C° 0 mm 1 m/s 654 mmHg 61%
    01:00 +16°C° 0 mm 0 m/s 654 mmHg 67%
    02:00 +15°C° 0 mm 0 m/s 653 mmHg 69%
    03:00 +15°C° 0 mm 0 m/s 653 mmHg 71%
    04:00 +14°C° 0 mm 0 m/s 653 mmHg 73%
    05:00 +15°C° 0 mm 0 m/s 653 mmHg 72%
    06:00 +15°C° 0 mm 0 m/s 654 mmHg 71%
    07:00 +17°C° 0 mm 0 m/s 655 mmHg 63%
    08:00 +20°C° 0 mm 0 m/s 655 mmHg 54%
    09:00 +25°C° 0 mm 1 m/s 656 mmHg 45%
    10:00 +29°C° 0 mm 2 m/s 657 mmHg 36%
    11:00 +30°C° 0 mm 2 m/s 657 mmHg 31%
    12:00 +31°C° 0 mm 2 m/s 656 mmHg 26%
    13:00 +34°C° 0 mm 2 m/s 656 mmHg 22%
    14:00 +33°C° 0 mm 3 m/s 656 mmHg 26%
    15:00 +31°C° 0 mm 3 m/s 655 mmHg 29%
    16:00 +30°C° 0 mm 4 m/s 655 mmHg 32%
    17:00 +27°C° 0 mm 3 m/s 655 mmHg 40%
    18:00 +25°C° 0 mm 3 m/s 655 mmHg 48%
    19:00 +23°C° 0 mm 2 m/s 654 mmHg 55%
    20:00 +23°C° 0 mm 1 m/s 655 mmHg 56%
    21:00 +23°C° 0 mm 1 m/s 655 mmHg 57%
    22:00 +22°C° 0 mm 1 m/s 655 mmHg 58%
    23:00 +20°C° 0 mm 0 m/s 655 mmHg 58%

    Demain, 25 Mai, Samedi

    Heure Température Précipitation Vent Pression Humidité
    00:00 +19°C° 0 mm 0 m/s 655 mmHg 59%
    01:00 +19°C° 0 mm 0 m/s 655 mmHg 59%
    02:00 +18°C° 0 mm 0 m/s 654 mmHg 62%
    03:00 +19°C° 0 mm 1 m/s 654 mmHg 65%
    04:00 +18°C° 0 mm 1 m/s 654 mmHg 68%
    05:00 +18°C° 0 mm 1 m/s 654 mmHg 67%
    06:00 +16°C° 0 mm 1 m/s 654 mmHg 66%
    07:00 +16°C° 0 mm 1 m/s 655 mmHg 65%
    08:00 +19°C° 0 mm 2 m/s 655 mmHg 52%
    09:00 +24°C° 0 mm 3 m/s 656 mmHg 38%
    10:00 +27°C° 0 mm 4 m/s 657 mmHg 24%
    11:00 +29°C° 0 mm 4 m/s 657 mmHg 22%
    12:00 +32°C° 0 mm 4 m/s 656 mmHg 19%
    13:00 +33°C° 0 mm 3 m/s 656 mmHg 17%
    14:00 +33°C° 0 mm 3 m/s 656 mmHg 17%
    15:00 +33°C° 0 mm 3 m/s 655 mmHg 17%
    16:00 +31°C° 0 mm 3 m/s 655 mmHg 17%
    17:00 +28°C° 0 mm 2 m/s 654 mmHg 22%
    18:00 +25°C° 0 mm 2 m/s 654 mmHg 26%
    19:00 +22°C° 0 mm 1 m/s 654 mmHg 31%
    20:00 +21°C° 0 mm 1 m/s 654 mmHg 33%
    21:00 +19°C° 0 mm 2 m/s 654 mmHg 34%
    22:00 +18°C° 0 mm 2 m/s 654 mmHg 36%
    23:00 +18°C° 0 mm 1 m/s 654 mmHg 37%

    Après-demain, 26 Mai, Dimanche

    Heure Température Précipitation Vent Pression Humidité
    00:00 +16°C° 0 mm 1 m/s 654 mmHg 38%
    01:00 +15°C° 0 mm 1 m/s 654 mmHg 39%
    02:00 +14°C° 0 mm 1 m/s 653 mmHg 41%
    03:00 +14°C° 0 mm 1 m/s 653 mmHg 44%
    04:00 +12°C° 0 mm 0 m/s 653 mmHg 46%
    05:00 +12°C° 0 mm 0 m/s 653 mmHg 47%
    06:00 +12°C° 0 mm 0 m/s 653 mmHg 48%
    07:00 +14°C° 0 mm 1 m/s 654 mmHg 48%
    08:00 +17°C° 0 mm 2 m/s 655 mmHg 41%
    09:00 +21°C° 0 mm 3 m/s 656 mmHg 34%
    10:00 +25°C° 0 mm 4 m/s 657 mmHg 27%
    11:00 +27°C° 0 mm 3 m/s 656 mmHg 24%
    12:00 +29°C° 0 mm 3 m/s 656 mmHg 21%
    13:00 +31°C° 0 mm 2 m/s 656 mmHg 18%
    14:00 +31°C° 0 mm 2 m/s 655 mmHg 18%
    15:00 +31°C° 0 mm 2 m/s 655 mmHg 18%
    16:00 +30°C° 0 mm 2 m/s 654 mmHg 17%
    17:00 +27°C° 0 mm 1 m/s 654 mmHg 22%
    18:00 +24°C° 0 mm 1 m/s 653 mmHg 27%
    19:00 +21°C° 0 mm 1 m/s 653 mmHg 32%
    20:00 +20°C° 0 mm 1 m/s 653 mmHg 34%
    21:00 +19°C° 0 mm 1 m/s 653 mmHg 36%
    22:00 +18°C° 0 mm 1 m/s 653 mmHg 38%
    23:00 +16°C° 0 mm 1 m/s 653 mmHg 41%

    27 Mai, Lundi

    Heure Température Précipitation Vent Pression Humidité
    00:00 +15°C° 0 mm 1 m/s 653 mmHg 43%
    01:00 +14°C° 0 mm 1 m/s 653 mmHg 46%
    02:00 +13°C° 0 mm 0 m/s 652 mmHg 49%
    03:00 +12°C° 0 mm 0 m/s 652 mmHg 52%
    04:00 +12°C° 0 mm 0 m/s 652 mmHg 55%
    05:00 +12°C° 0 mm 0 m/s 652 mmHg 56%
    06:00 +13°C° 0 mm 1 m/s 653 mmHg 56%
    07:00 +14°C° 0 mm 1 m/s 653 mmHg 56%
    08:00 +17°C° 0 mm 2 m/s 654 mmHg 47%
    09:00 +21°C° 0 mm 2 m/s 655 mmHg 39%
    10:00 +25°C° 0 mm 3 m/s 656 mmHg 30%
    11:00 +27°C° 0 mm 3 m/s 656 mmHg 27%
    12:00 +29°C° 0 mm 2 m/s 655 mmHg 23%
    13:00 +31°C° 0 mm 2 m/s 655 mmHg 20%
    14:00 +31°C° 0 mm 2 m/s 654 mmHg 20%
    15:00 +31°C° 0 mm 1 m/s 654 mmHg 19%
    16:00 +31°C° 0 mm 1 m/s 653 mmHg 19%
    17:00 +27°C° 0 mm 1 m/s 653 mmHg 23%
    18:00 +24°C° 0 mm 1 m/s 653 mmHg 28%
    19:00 +21°C° 0 mm 1 m/s 652 mmHg 33%
    20:00 +20°C° 0 mm 1 m/s 653 mmHg 35%
    21:00 +19°C° 0 mm 1 m/s 653 mmHg 37%
    22:00 +19°C° 0 mm 1 m/s 653 mmHg 39%
    23:00 +18°C° 0 mm 1 m/s 653 mmHg 42%

    28 Mai, Mardi

    Heure Température Précipitation Vent Pression Humidité
    00:00 +16°C° 0 mm 1 m/s 653 mmHg 44%
    01:00 +14°C° 0 mm 0 m/s 652 mmHg 46%
    02:00 +14°C° 0 mm 0 m/s 652 mmHg 47%
    03:00 +13°C° 0 mm 0 m/s 652 mmHg 48%
    04:00 +13°C° 0 mm 0 m/s 652 mmHg 50%
    05:00 +13°C° 0 mm 0 m/s 652 mmHg 50%
    06:00 +14°C° 0 mm 1 m/s 653 mmHg 50%
    07:00 +15°C° 0 mm 1 m/s 653 mmHg 50%
    08:00 +19°C° 0 mm 1 m/s 654 mmHg 41%
    09:00 +23°C° 0 mm 2 m/s 655 mmHg 33%
    10:00 +27°C° 0 mm 2 m/s 656 mmHg 25%
    11:00 +28°C° 0 mm 2 m/s 655 mmHg 22%
    12:00 +30°C° 0 mm 2 m/s 655 mmHg 20%
    13:00 +32°C° 0 mm 2 m/s 655 mmHg 18%
    14:00 +31°C° 0 mm 2 m/s 654 mmHg 18%
    15:00 +31°C° 0 mm 1 m/s 654 mmHg 18%
    16:00 +31°C° 0 mm 1 m/s 653 mmHg 18%
    17:00 +28°C° 0 mm 1 m/s 653 mmHg 23%
    18:00 +25°C° 0 mm 1 m/s 653 mmHg 28%
    19:00 +22°C° 0 mm 1 m/s 653 mmHg 32%
    20:00 +21°C° 0 mm 1 m/s 653 mmHg 36%
    21:00 +19°C° 0 mm 2 m/s 653 mmHg 39%
    22:00 +18°C° 0 mm 2 m/s 653 mmHg 42%
    23:00 +18°C° 0 mm 1 m/s 653 mmHg 47%

    29 Mai, Mercredi

    Heure Température Précipitation Vent Pression Humidité
    00:00 +16°C° 0 mm 1 m/s 652 mmHg 51%
    01:00 +16°C° 0 mm 1 m/s 652 mmHg 55%
    02:00 +15°C° 0 mm 1 m/s 652 mmHg 57%
    03:00 +14°C° 0 mm 0 m/s 652 mmHg 60%
    04:00 +13°C° 0 mm 0 m/s 652 mmHg 62%
    05:00 +14°C° 0 mm 0 m/s 652 mmHg 61%
    06:00 +14°C° 0 mm 0 m/s 653 mmHg 61%
    07:00 +14°C° 0 mm 0 m/s 653 mmHg 61%
    08:00 +18°C° 0 mm 0 m/s 654 mmHg 50%
    09:00 +25°C° 0 mm 1 m/s 655 mmHg 39%
    10:00 +29°C° 0 mm 1 m/s 657 mmHg 28%
    11:00 +30°C° 0 mm 1 m/s 656 mmHg 26%
    12:00 +31°C° 0 mm 1 m/s 656 mmHg 23%
    13:00 +33°C° 0 mm 1 m/s 655 mmHg 21%
    14:00 +32°C° 0 mm 1 m/s 655 mmHg 21%
    15:00 +32°C° 0 mm 1 m/s 654 mmHg 21%
    16:00 +31°C° 0 mm 1 m/s 653 mmHg 22%
    17:00 +29°C° 0 mm 1 m/s 653 mmHg 26%
    18:00 +26°C° 0 mm 1 m/s 653 mmHg 31%
    19:00 +23°C° 0 mm 1 m/s 653 mmHg 36%
    20:00 +22°C° 0 mm 1 m/s 653 mmHg 38%
    21:00 +21°C° 0 mm 1 m/s 653 mmHg 39%
    22:00 +19°C° 0 mm 2 m/s 653 mmHg 41%
    23:00 +18°C° 0 mm 2 m/s 653 mmHg 43%
    Voir plus